Location: Gleizolles
(44.4833°N, 6.7667°E)
Time: 11:07:54
(UTC+00:00)

Vanguard 1 - Pass Details

Date: 26 June 2024
Orbit: 650 x 3826 km, 34.3° (Epoch: 13 July)

Event Time Altitude Azimuth Distance (km) Brightness Sun altitude
Rises 09:22:22 0° 226° (SW) 6,334 14.1 55.5°
Reaches altitude 10° 09:27:56 10° 217° (SW) 4,738 13.6 56.4°
Maximum altitude 09:37:20 28° 166° (SSE) 2,533 13.0 57.9°
Drops below altitude 10° 09:43:19 10° 110° (ESE) 2,939 13.2 58.8°
Sets 09:45:53 0° 97° (E) 3,615 13.4 59.2°
